KLM275 TNCB-SKCL

Flight info

Callsign KLM275
Flight time 1h 52m
Altitude 24000
Route EMAPA1R EMAPA G431 STB/N0481F400 UW567 ENPUT A567 CUC UW1 PIE UW9 ZIP/N0447F240 W44 SOA W16 GIR R564 OREGA OREGA2C
Aircraft MD11/H-SDE1E2E3FGHIJ2J3J4J5M1RWXY/LB1D1

Departure

Time 2026-05-07 18:57
Airport Flamingo International Airport (TNCB)

Arrival

Time 2026-05-07 20:49
Airport Alfonso Bonilla Aragon International Airport (SKCL)
Time Latitude Longitude Altitude Speed Heading
2026-05-07 18:27 12.13276 -68.27624 35 ft 0 kts 187°
2026-05-07 18:51 12.13259 -68.27626 35 ft 0 kts 187°
2026-05-07 18:52 12.13239 -68.27630 35 ft 1 kts 199°
2026-05-07 18:52 12.13236 -68.27634 36 ft 1 kts 219°
2026-05-07 18:52 12.13230 -68.27641 36 ft 2 kts 226°
2026-05-07 18:52 12.13218 -68.27657 36 ft 2 kts 240°
2026-05-07 18:53 12.13210 -68.27682 34 ft 5 kts 252°
2026-05-07 18:53 12.13202 -68.27727 36 ft 4 kts 255°
2026-05-07 18:53 12.13186 -68.27755 36 ft 7 kts 244°
2026-05-07 18:53 12.13169 -68.27773 35 ft 5 kts 221°
2026-05-07 18:54 12.13138 -68.27796 35 ft 7 kts 220°
2026-05-07 18:54 12.13116 -68.27850 35 ft 9 kts 260°
2026-05-07 18:54 12.13116 -68.27928 34 ft 15 kts 270°
2026-05-07 18:54 12.13091 -68.28035 34 ft 17 kts 241°
2026-05-07 18:55 12.13075 -68.28101 34 ft 3 kts 281°
2026-05-07 18:55 12.13082 -68.28108 33 ft 1 kts 319°
2026-05-07 18:55 12.13091 -68.28108 34 ft 2 kts 354°
2026-05-07 18:55 12.13108 -68.28095 35 ft 5 kts 45°
2026-05-07 18:56 12.13119 -68.28050 35 ft 0 kts 87°
2026-05-07 18:56 12.13121 -68.28005 34 ft 12 kts 88°
2026-05-07 18:56 12.13120 -68.27881 34 ft 26 kts 91°
2026-05-07 18:56 12.13106 -68.27438 35 ft 104 kts 92°
2026-05-07 18:57 12.13060 -68.26455 69 ft 166 kts 94°
2026-05-07 18:57 12.13011 -68.25236 840 ft 173 kts 91°
2026-05-07 18:57 12.13030 -68.24063 2211 ft 146 kts 93°
2026-05-07 18:57 12.13000 -68.23041 3418 ft 158 kts 94°
2026-05-07 18:58 12.12925 -68.21763 4014 ft 197 kts 96°
2026-05-07 18:58 12.12870 -68.20357 5054 ft 206 kts 92°
2026-05-07 18:58 12.12761 -68.18838 5962 ft 231 kts 94°
2026-05-07 18:58 12.12666 -68.17194 6991 ft 241 kts 92°
2026-05-07 18:59 12.12555 -68.15466 7876 ft 251 kts 96°
2026-05-07 18:59 12.12175 -68.13689 8732 ft 265 kts 110°
2026-05-07 18:59 12.11128 -68.12086 9704 ft 271 kts 136°
2026-05-07 18:59 12.09486 -68.11022 10380 ft 300 kts 157°
2026-05-07 19:00 12.07279 -68.10774 10528 ft 345 kts 184°
2026-05-07 19:00 12.04898 -68.11549 10866 ft 370 kts 204°
2026-05-07 19:00 12.02656 -68.12922 11224 ft 379 kts 211°
2026-05-07 19:00 12.00471 -68.14461 11559 ft 383 kts 212°
2026-05-07 19:01 11.98266 -68.16010 11861 ft 386 kts 212°
2026-05-07 19:01 11.96100 -68.17654 11968 ft 390 kts 218°
2026-05-07 19:01 11.94319 -68.19535 12018 ft 395 kts 232°
2026-05-07 19:01 11.93027 -68.22004 13114 ft 397 kts 249°
2026-05-07 19:02 11.92417 -68.24765 14027 ft 402 kts 266°
2026-05-07 19:02 11.92351 -68.27633 14856 ft 407 kts 273°
2026-05-07 19:02 11.92492 -68.30530 15719 ft 411 kts 275°
2026-05-07 19:02 11.92676 -68.33454 16549 ft 415 kts 275°
2026-05-07 19:03 11.92844 -68.36419 17402 ft 419 kts 275°
2026-05-07 19:03 11.92980 -68.39395 18198 ft 424 kts 274°
2026-05-07 19:03 11.93089 -68.42412 18898 ft 427 kts 274°
2026-05-07 19:03 11.93183 -68.45474 19598 ft 430 kts 273°
2026-05-07 19:04 11.93239 -68.47502 20048 ft 432 kts 273°
2026-05-07 19:04 11.93345 -68.51581 21001 ft 434 kts 273°
2026-05-07 19:04 11.93424 -68.54667 21754 ft 436 kts 273°
2026-05-07 19:04 11.93477 -68.56768 22273 ft 438 kts 273°
2026-05-07 19:05 11.93556 -68.59893 22820 ft 441 kts 273°
2026-05-07 19:05 11.93635 -68.63024 23208 ft 442 kts 273°
2026-05-07 19:05 11.93713 -68.66164 23584 ft 443 kts 273°
2026-05-07 19:05 11.93792 -68.69320 23858 ft 446 kts 273°
2026-05-07 19:06 11.93871 -68.72488 23949 ft 445 kts 273°
2026-05-07 19:06 11.94014 -68.78462 23974 ft 404 kts 274°
2026-05-07 19:06 11.94085 -68.81328 23981 ft 402 kts 274°
2026-05-07 19:07 11.94155 -68.84141 23989 ft 401 kts 274°
2026-05-07 19:07 11.94227 -68.86996 23987 ft 401 kts 274°
2026-05-07 19:07 11.94299 -68.89847 23986 ft 402 kts 274°
2026-05-07 19:07 11.94369 -68.92700 23988 ft 402 kts 274°
2026-05-07 19:08 11.94438 -68.95548 23987 ft 402 kts 274°
2026-05-07 19:08 11.94506 -68.98363 23988 ft 402 kts 274°
2026-05-07 19:08 11.94575 -69.01225 23987 ft 402 kts 274°
2026-05-07 19:08 11.94643 -69.04078 23985 ft 402 kts 274°
2026-05-07 19:09 11.94711 -69.06939 23983 ft 402 kts 274°
2026-05-07 19:09 11.94778 -69.09794 23981 ft 403 kts 274°
2026-05-07 19:09 11.94842 -69.12658 23979 ft 403 kts 274°
2026-05-07 19:09 11.94905 -69.15523 23978 ft 404 kts 274°
2026-05-07 19:10 11.94904 -69.18390 23974 ft 405 kts 269°
2026-05-07 19:10 11.94473 -69.21246 23964 ft 409 kts 256°
2026-05-07 19:10 11.93325 -69.23911 23967 ft 414 kts 239°
2026-05-07 19:10 11.91503 -69.26154 23971 ft 418 kts 226°
2026-05-07 19:11 11.89299 -69.28151 23970 ft 420 kts 221°
2026-05-07 19:11 11.87048 -69.29994 23964 ft 420 kts 220°
2026-05-07 19:11 11.84755 -69.31851 23965 ft 421 kts 220°
2026-05-07 19:11 11.82481 -69.33728 23964 ft 420 kts 221°
2026-05-07 19:12 11.80223 -69.35635 23962 ft 420 kts 221°
2026-05-07 19:12 11.77989 -69.37554 23960 ft 420 kts 222°
2026-05-07 19:12 11.75757 -69.39490 23958 ft 421 kts 222°
2026-05-07 19:12 11.73541 -69.41422 23958 ft 421 kts 222°
2026-05-07 19:13 11.71303 -69.43378 23956 ft 421 kts 222°
2026-05-07 19:13 11.69079 -69.45321 23957 ft 420 kts 222°
2026-05-07 19:13 11.66858 -69.47261 23958 ft 420 kts 222°
2026-05-07 19:13 11.64634 -69.49203 23960 ft 420 kts 222°
2026-05-07 19:14 11.62415 -69.51140 23958 ft 420 kts 222°
2026-05-07 19:14 11.60193 -69.53077 23962 ft 420 kts 222°
2026-05-07 19:14 11.57971 -69.55016 23964 ft 420 kts 222°
2026-05-07 19:14 11.55775 -69.56930 23969 ft 420 kts 222°
2026-05-07 19:15 11.53553 -69.58868 23972 ft 420 kts 222°
2026-05-07 19:15 11.51330 -69.60805 23974 ft 420 kts 222°
2026-05-07 19:15 11.49105 -69.62744 23978 ft 420 kts 222°
2026-05-07 19:15 11.46880 -69.64683 23981 ft 421 kts 222°
2026-05-07 19:16 11.44657 -69.66619 23979 ft 421 kts 222°
2026-05-07 19:16 11.42426 -69.68562 23977 ft 420 kts 223°
2026-05-07 19:16 11.40400 -69.70682 23973 ft 417 kts 235°
2026-05-07 19:16 11.38799 -69.73136 23983 ft 416 kts 242°
2026-05-07 19:17 11.37430 -69.75684 23982 ft 415 kts 245°
2026-05-07 19:17 11.36121 -69.78296 23976 ft 415 kts 246°
2026-05-07 19:17 11.34810 -69.80931 23970 ft 416 kts 245°
2026-05-07 19:17 11.33483 -69.83561 23966 ft 416 kts 245°
2026-05-07 19:18 11.32142 -69.86171 23960 ft 416 kts 244°
2026-05-07 19:18 11.30788 -69.88774 23953 ft 416 kts 244°
2026-05-07 19:18 11.29426 -69.91374 23949 ft 416 kts 244°
2026-05-07 19:18 11.28052 -69.93986 23943 ft 417 kts 244°
2026-05-07 19:19 11.26683 -69.96587 23932 ft 417 kts 244°
2026-05-07 19:19 11.25309 -69.99193 23919 ft 417 kts 244°
2026-05-07 19:19 11.23936 -70.01797 23921 ft 417 kts 244°
2026-05-07 19:19 11.22562 -70.04404 23916 ft 417 kts 244°
2026-05-07 19:20 11.21206 -70.06976 23913 ft 417 kts 244°
2026-05-07 19:20 11.19828 -70.09586 23911 ft 417 kts 244°
2026-05-07 19:20 11.18451 -70.12182 23908 ft 417 kts 244°
2026-05-07 19:20 11.17062 -70.14786 23908 ft 418 kts 244°
2026-05-07 19:21 11.15680 -70.17374 23910 ft 418 kts 243°
2026-05-07 19:21 11.14286 -70.19982 23907 ft 418 kts 244°
2026-05-07 19:21 11.12896 -70.22584 23906 ft 418 kts 244°
2026-05-07 19:21 11.11508 -70.25184 23904 ft 418 kts 244°
2026-05-07 19:22 11.10122 -70.27778 23903 ft 418 kts 243°
2026-05-07 19:22 11.08733 -70.30378 23903 ft 417 kts 243°
2026-05-07 19:22 11.07342 -70.32982 23902 ft 418 kts 243°
2026-05-07 19:22 11.05959 -70.35570 23905 ft 417 kts 243°
2026-05-07 19:23 11.04568 -70.38174 23901 ft 417 kts 243°
2026-05-07 19:23 11.03204 -70.40725 23905 ft 417 kts 243°
2026-05-07 19:23 11.01809 -70.43333 23902 ft 417 kts 243°
2026-05-07 19:23 11.00417 -70.45935 23902 ft 417 kts 243°
2026-05-07 19:24 10.99028 -70.48531 23902 ft 418 kts 243°
2026-05-07 19:24 10.97636 -70.51131 23899 ft 418 kts 243°
2026-05-07 19:24 10.96242 -70.53736 23904 ft 418 kts 243°
2026-05-07 19:24 10.94857 -70.56322 23905 ft 418 kts 243°
2026-05-07 19:25 10.93464 -70.58923 23906 ft 418 kts 243°
2026-05-07 19:25 10.92074 -70.61518 23904 ft 418 kts 243°
2026-05-07 19:25 10.90680 -70.64118 23906 ft 418 kts 243°
2026-05-07 19:25 10.89288 -70.66716 23901 ft 418 kts 243°
2026-05-07 19:26 10.87896 -70.69311 23903 ft 418 kts 243°
2026-05-07 19:26 10.86519 -70.71881 23906 ft 419 kts 243°
2026-05-07 19:26 10.85123 -70.74484 23902 ft 419 kts 243°
2026-05-07 19:26 10.83725 -70.77088 23904 ft 419 kts 243°
2026-05-07 19:27 10.82326 -70.79696 23905 ft 419 kts 243°
2026-05-07 19:27 10.80927 -70.82302 23902 ft 419 kts 243°
2026-05-07 19:27 10.79531 -70.84899 23905 ft 419 kts 243°
2026-05-07 19:27 10.78134 -70.87495 23904 ft 418 kts 243°
2026-05-07 19:28 10.76736 -70.90090 23909 ft 419 kts 243°
2026-05-07 19:28 10.75333 -70.92695 23910 ft 419 kts 243°
2026-05-07 19:28 10.73933 -70.95298 23904 ft 419 kts 243°
2026-05-07 19:28 10.72535 -70.97899 23909 ft 419 kts 243°
2026-05-07 19:29 10.71136 -71.00498 23906 ft 419 kts 243°
2026-05-07 19:29 10.69605 -71.02978 23902 ft 421 kts 232°
2026-05-07 19:29 10.67500 -71.05024 23909 ft 423 kts 216°
2026-05-07 19:29 10.64986 -71.06590 23910 ft 424 kts 208°
2026-05-07 19:30 10.62330 -71.07942 23909 ft 424 kts 206°
2026-05-07 19:30 10.59671 -71.09226 23913 ft 425 kts 205°
2026-05-07 19:30 10.56999 -71.10533 23913 ft 425 kts 206°
2026-05-07 19:30 10.54350 -71.11867 23907 ft 425 kts 207°
2026-05-07 19:31 10.51707 -71.13232 23905 ft 425 kts 207°
2026-05-07 19:31 10.49078 -71.14612 23903 ft 425 kts 207°
2026-05-07 19:31 10.46489 -71.15982 23903 ft 425 kts 208°
2026-05-07 19:31 10.43869 -71.17369 23904 ft 425 kts 207°
2026-05-07 19:32 10.41271 -71.18742 23905 ft 425 kts 207°
2026-05-07 19:32 10.38640 -71.20129 23902 ft 425 kts 207°
2026-05-07 19:32 10.36010 -71.21516 23902 ft 424 kts 207°
2026-05-07 19:32 10.33394 -71.22894 23900 ft 424 kts 207°
2026-05-07 19:33 10.30772 -71.24277 23898 ft 424 kts 207°
2026-05-07 19:33 10.28147 -71.25661 23901 ft 424 kts 207°
2026-05-07 19:33 10.25533 -71.27038 23899 ft 424 kts 207°
2026-05-07 19:33 10.22911 -71.28419 23896 ft 423 kts 207°
2026-05-07 19:34 10.20293 -71.29799 23898 ft 423 kts 207°
2026-05-07 19:34 10.17666 -71.31157 23901 ft 423 kts 206°
2026-05-07 19:34 10.15017 -71.32458 23900 ft 423 kts 205°
2026-05-07 19:34 10.12358 -71.33731 23899 ft 423 kts 205°
2026-05-07 19:35 10.09729 -71.34978 23899 ft 423 kts 205°
2026-05-07 19:35 10.07058 -71.36243 23895 ft 423 kts 205°
2026-05-07 19:35 10.04398 -71.37505 23896 ft 422 kts 205°
2026-05-07 19:35 10.01720 -71.38778 23897 ft 422 kts 205°
2026-05-07 19:36 9.99059 -71.40044 23898 ft 422 kts 205°
2026-05-07 19:36 9.96426 -71.41356 23900 ft 422 kts 207°
2026-05-07 19:36 9.93815 -71.42728 23897 ft 422 kts 208°
2026-05-07 19:36 9.91208 -71.44130 23899 ft 422 kts 208°
2026-05-07 19:37 9.88667 -71.45505 23899 ft 422 kts 208°
2026-05-07 19:37 9.86078 -71.46906 23897 ft 421 kts 208°
2026-05-07 19:37 9.83498 -71.48298 23895 ft 421 kts 208°
2026-05-07 19:37 9.80902 -71.49696 23898 ft 421 kts 208°
2026-05-07 19:38 9.78323 -71.51082 23897 ft 420 kts 208°
2026-05-07 19:38 9.75739 -71.52470 23901 ft 420 kts 208°
2026-05-07 19:38 9.73150 -71.53859 23901 ft 420 kts 208°
2026-05-07 19:38 9.70558 -71.55250 23898 ft 420 kts 208°
2026-05-07 19:39 9.67976 -71.56635 23899 ft 420 kts 208°
2026-05-07 19:39 9.65390 -71.58022 23899 ft 420 kts 208°
2026-05-07 19:39 9.62809 -71.59406 23900 ft 419 kts 208°
2026-05-07 19:39 9.60230 -71.60789 23897 ft 419 kts 208°
2026-05-07 19:40 9.57652 -71.62171 23899 ft 419 kts 208°
2026-05-07 19:40 9.55120 -71.63528 23899 ft 419 kts 208°
2026-05-07 19:40 9.52497 -71.64933 23896 ft 419 kts 208°
2026-05-07 19:40 9.49953 -71.66296 23902 ft 419 kts 208°
2026-05-07 19:41 9.47365 -71.67683 23903 ft 419 kts 208°
2026-05-07 19:41 9.44776 -71.69069 23912 ft 428 kts 208°
2026-05-07 19:41 9.42096 -71.70505 24030 ft 444 kts 208°
2026-05-07 19:41 9.39314 -71.71994 24131 ft 462 kts 208°
2026-05-07 19:42 9.36409 -71.73549 24252 ft 480 kts 208°
2026-05-07 19:42 9.33390 -71.75165 24368 ft 500 kts 208°
2026-05-07 19:42 9.30267 -71.76837 24483 ft 519 kts 208°
2026-05-07 19:42 9.27022 -71.78573 24678 ft 530 kts 208°
2026-05-07 19:43 9.23767 -71.80314 25244 ft 529 kts 208°
2026-05-07 19:43 9.20505 -71.82056 25912 ft 527 kts 208°
2026-05-07 19:43 9.17259 -71.83789 26594 ft 525 kts 208°
2026-05-07 19:43 9.14042 -71.85507 27339 ft 521 kts 208°
2026-05-07 19:44 9.10837 -71.87219 28107 ft 518 kts 208°
2026-05-07 19:44 9.07668 -71.88912 28912 ft 515 kts 208°
2026-05-07 19:44 9.04507 -71.90600 29744 ft 512 kts 208°
2026-05-07 19:44 9.01409 -71.92255 30425 ft 509 kts 208°
2026-05-07 19:45 8.98289 -71.93930 31056 ft 507 kts 209°
2026-05-07 19:45 8.95196 -71.95630 31655 ft 505 kts 210°
2026-05-07 19:45 8.92116 -71.97351 32232 ft 503 kts 210°
2026-05-07 19:45 8.89057 -71.99072 32818 ft 502 kts 210°
2026-05-07 19:46 8.86009 -72.00789 33368 ft 501 kts 210°
2026-05-07 19:46 8.82965 -72.02501 33885 ft 500 kts 210°
2026-05-07 19:46 8.79961 -72.04189 34326 ft 499 kts 210°
2026-05-07 19:46 8.76894 -72.05909 34774 ft 498 kts 210°
2026-05-07 19:47 8.73905 -72.07584 35208 ft 496 kts 210°
2026-05-07 19:47 8.70884 -72.09276 35634 ft 495 kts 210°
2026-05-07 19:47 8.67875 -72.10960 36069 ft 494 kts 210°
2026-05-07 19:47 8.64880 -72.12637 36489 ft 492 kts 210°
2026-05-07 19:48 8.61883 -72.14315 36887 ft 491 kts 210°
2026-05-07 19:48 8.58905 -72.15981 37290 ft 489 kts 210°
2026-05-07 19:48 8.55925 -72.17649 37682 ft 488 kts 210°
2026-05-07 19:48 8.52954 -72.19311 38057 ft 487 kts 210°
2026-05-07 19:49 8.49990 -72.20969 38428 ft 486 kts 210°
2026-05-07 19:49 8.47043 -72.22617 38751 ft 484 kts 210°
2026-05-07 19:49 8.44094 -72.24267 39038 ft 483 kts 210°
2026-05-07 19:49 8.41156 -72.25909 39323 ft 482 kts 210°
2026-05-07 19:50 8.38225 -72.27547 39593 ft 482 kts 210°
2026-05-07 19:50 8.36284 -72.28632 39772 ft 481 kts 210°
2026-05-07 19:50 8.32403 -72.30801 39897 ft 481 kts 210°
2026-05-07 19:50 8.29469 -72.32440 39916 ft 480 kts 211°
2026-05-07 19:51 8.24570 -72.35176 39921 ft 480 kts 211°
2026-05-07 19:51 8.18737 -72.38362 39937 ft 480 kts 209°
2026-05-07 19:52 8.12770 -72.41434 39951 ft 479 kts 208°
2026-05-07 19:52 8.06844 -72.44451 39967 ft 479 kts 208°
2026-05-07 19:53 8.00898 -72.47490 39976 ft 478 kts 209°
2026-05-07 19:53 7.94958 -72.50534 39979 ft 478 kts 209°
2026-05-07 19:54 7.89118 -72.53675 39978 ft 477 kts 211°
2026-05-07 19:54 7.83301 -72.56923 39977 ft 477 kts 211°
2026-05-07 19:55 7.77482 -72.60176 39979 ft 476 kts 211°
2026-05-07 19:55 7.71718 -72.63385 39996 ft 476 kts 211°
2026-05-07 19:56 7.65882 -72.66628 40018 ft 476 kts 211°
2026-05-07 19:56 7.60119 -72.69828 40041 ft 476 kts 211°
2026-05-07 19:57 7.54315 -72.73051 40055 ft 476 kts 211°
2026-05-07 19:57 7.48503 -72.76277 40062 ft 476 kts 211°
2026-05-07 19:58 7.42699 -72.79496 40069 ft 475 kts 211°
2026-05-07 19:58 7.36946 -72.82687 40079 ft 475 kts 211°
2026-05-07 19:59 7.31142 -72.85907 40077 ft 476 kts 211°
2026-05-07 19:59 7.25328 -72.89130 40077 ft 476 kts 211°
2026-05-07 20:00 7.19514 -72.92352 40063 ft 477 kts 211°
2026-05-07 20:00 7.13698 -72.95572 40060 ft 477 kts 211°
2026-05-07 20:01 7.07865 -72.98801 40049 ft 478 kts 211°
2026-05-07 20:01 7.02049 -73.01975 40043 ft 479 kts 209°
2026-05-07 20:02 6.96072 -73.04948 40036 ft 480 kts 207°
2026-05-07 20:02 6.90034 -73.07864 40027 ft 480 kts 207°
2026-05-07 20:03 6.83991 -73.10793 40007 ft 481 kts 207°
2026-05-07 20:03 6.77968 -73.13727 39988 ft 481 kts 208°
2026-05-07 20:04 6.71977 -73.16649 39976 ft 481 kts 208°
2026-05-07 20:04 6.65952 -73.19587 39975 ft 481 kts 208°
2026-05-07 20:05 6.59919 -73.22528 39974 ft 481 kts 208°
2026-05-07 20:05 6.53872 -73.25474 39979 ft 482 kts 207°
2026-05-07 20:06 6.47870 -73.28397 39975 ft 482 kts 207°
2026-05-07 20:06 6.41828 -73.31339 39974 ft 483 kts 207°
2026-05-07 20:07 6.35777 -73.34285 39977 ft 482 kts 207°
2026-05-07 20:07 6.29759 -73.37215 39979 ft 482 kts 207°
2026-05-07 20:08 6.23727 -73.40148 39985 ft 482 kts 207°
2026-05-07 20:08 6.17680 -73.43087 39989 ft 482 kts 207°
2026-05-07 20:09 6.11640 -73.46024 39995 ft 481 kts 207°
2026-05-07 20:10 6.02590 -73.50424 40007 ft 481 kts 207°
2026-05-07 20:10 5.96595 -73.53338 40012 ft 481 kts 207°
2026-05-07 20:11 5.90565 -73.56267 40019 ft 481 kts 207°
2026-05-07 20:11 5.84539 -73.59194 40025 ft 481 kts 207°
2026-05-07 20:12 5.78514 -73.62121 40031 ft 480 kts 207°
2026-05-07 20:12 5.72493 -73.65044 40048 ft 480 kts 207°
2026-05-07 20:13 5.66477 -73.67964 40037 ft 480 kts 208°
2026-05-07 20:13 5.60453 -73.70888 40042 ft 481 kts 208°
2026-05-07 20:14 5.54466 -73.73793 40045 ft 480 kts 208°
2026-05-07 20:14 5.48439 -73.76715 40045 ft 480 kts 207°
2026-05-07 20:15 5.42418 -73.79633 40050 ft 480 kts 207°
2026-05-07 20:15 5.36401 -73.82550 40054 ft 480 kts 208°
2026-05-07 20:16 5.30379 -73.85469 40058 ft 480 kts 208°
2026-05-07 20:16 5.24352 -73.88390 40058 ft 481 kts 208°
2026-05-07 20:17 5.18320 -73.91313 40065 ft 481 kts 208°
2026-05-07 20:17 5.12338 -73.94212 40108 ft 481 kts 207°
2026-05-07 20:18 5.06304 -73.97134 40180 ft 480 kts 207°
2026-05-07 20:18 5.00279 -74.00051 40255 ft 480 kts 207°
2026-05-07 20:19 4.94521 -74.03397 40345 ft 478 kts 216°
2026-05-07 20:19 4.89083 -74.07235 40384 ft 478 kts 218°
2026-05-07 20:20 4.83675 -74.11113 40396 ft 478 kts 217°
2026-05-07 20:20 4.78268 -74.14928 40380 ft 478 kts 217°
2026-05-07 20:21 4.72807 -74.18748 40379 ft 478 kts 217°
2026-05-07 20:21 4.67339 -74.22568 40375 ft 478 kts 217°
2026-05-07 20:22 4.61881 -74.26390 40322 ft 478 kts 218°
2026-05-07 20:22 4.57189 -74.31032 40231 ft 472 kts 236°
2026-05-07 20:23 4.53549 -74.36459 40137 ft 472 kts 239°
2026-05-07 20:23 4.49970 -74.41986 40032 ft 472 kts 238°
2026-05-07 20:24 4.46283 -74.47453 39985 ft 473 kts 238°
2026-05-07 20:24 4.42548 -74.52881 39945 ft 473 kts 237°
2026-05-07 20:25 4.38799 -74.58312 39903 ft 473 kts 237°
2026-05-07 20:25 4.35051 -74.63732 39868 ft 473 kts 237°
2026-05-07 20:26 4.31287 -74.69152 39846 ft 473 kts 237°
2026-05-07 20:26 4.27583 -74.74523 39840 ft 474 kts 237°
2026-05-07 20:27 4.23827 -74.79985 39843 ft 474 kts 237°
2026-05-07 20:27 4.20082 -74.85429 39846 ft 474 kts 237°
2026-05-07 20:28 4.16628 -74.91032 39852 ft 472 kts 244°
2026-05-07 20:28 4.13646 -74.96889 39870 ft 472 kts 245°
2026-05-07 20:29 4.10720 -75.02779 39893 ft 472 kts 245°
2026-05-07 20:29 4.07753 -75.08664 39915 ft 472 kts 245°
2026-05-07 20:30 4.04787 -75.14496 39925 ft 472 kts 244°
2026-05-07 20:30 4.01793 -75.20370 39938 ft 472 kts 244°
2026-05-07 20:31 3.98808 -75.26227 39952 ft 472 kts 244°
2026-05-07 20:31 3.97312 -75.29162 39714 ft 473 kts 244°
2026-05-07 20:31 3.95811 -75.32108 39335 ft 474 kts 244°
2026-05-07 20:31 3.94311 -75.35052 38897 ft 475 kts 244°
2026-05-07 20:32 3.92809 -75.38000 38342 ft 475 kts 244°
2026-05-07 20:32 3.91306 -75.40949 37796 ft 476 kts 244°
2026-05-07 20:32 3.89798 -75.43908 37282 ft 477 kts 244°
2026-05-07 20:32 3.88308 -75.46831 36799 ft 477 kts 244°
2026-05-07 20:33 3.86809 -75.49805 36298 ft 478 kts 244°
2026-05-07 20:33 3.85356 -75.52800 35749 ft 479 kts 245°
2026-05-07 20:33 3.83925 -75.55818 35196 ft 479 kts 245°
2026-05-07 20:33 3.82508 -75.58835 34640 ft 479 kts 245°
2026-05-07 20:34 3.81097 -75.61844 34094 ft 478 kts 245°
2026-05-07 20:34 3.79674 -75.64876 33475 ft 483 kts 245°
2026-05-07 20:34 3.78243 -75.67914 32894 ft 484 kts 245°
2026-05-07 20:34 3.76801 -75.70972 32305 ft 487 kts 245°
2026-05-07 20:35 3.75348 -75.74050 31721 ft 491 kts 244°
2026-05-07 20:35 3.73887 -75.77143 31129 ft 493 kts 244°
2026-05-07 20:35 3.72420 -75.80248 30505 ft 495 kts 244°
2026-05-07 20:35 3.70944 -75.83372 29793 ft 496 kts 244°
2026-05-07 20:36 3.69470 -75.86491 29079 ft 494 kts 244°
2026-05-07 20:36 3.68009 -75.89585 28406 ft 490 kts 244°
2026-05-07 20:36 3.66558 -75.92654 27733 ft 486 kts 244°
2026-05-07 20:36 3.65135 -75.95667 27091 ft 482 kts 244°
2026-05-07 20:37 3.63705 -75.98693 26443 ft 479 kts 244°
2026-05-07 20:37 3.62283 -76.01701 25799 ft 475 kts 244°
2026-05-07 20:37 3.60874 -76.04680 25158 ft 472 kts 244°
2026-05-07 20:37 3.59474 -76.07641 24507 ft 469 kts 244°
2026-05-07 20:38 3.58552 -76.09590 23979 ft 466 kts 244°
2026-05-07 20:38 3.57174 -76.12507 23030 ft 461 kts 244°
2026-05-07 20:38 3.55813 -76.15389 22018 ft 454 kts 244°
2026-05-07 20:38 3.54476 -76.18226 21015 ft 447 kts 244°
2026-05-07 20:39 3.53162 -76.21025 20019 ft 440 kts 244°
2026-05-07 20:39 3.51865 -76.23773 19061 ft 431 kts 243°
2026-05-07 20:39 3.50412 -76.26285 18111 ft 405 kts 233°
2026-05-07 20:39 3.48521 -76.28252 17053 ft 382 kts 215°
2026-05-07 20:40 3.46250 -76.29482 16037 ft 364 kts 198°
2026-05-07 20:40 3.43863 -76.30152 15053 ft 350 kts 190°
2026-05-07 20:40 3.41505 -76.30623 14056 ft 341 kts 188°
2026-05-07 20:40 3.39193 -76.31053 12962 ft 336 kts 188°
2026-05-07 20:41 3.36917 -76.31491 11857 ft 331 kts 189°
2026-05-07 20:41 3.34673 -76.31944 10806 ft 327 kts 190°
2026-05-07 20:41 3.32463 -76.32407 9760 ft 322 kts 191°
2026-05-07 20:41 3.30309 -76.32871 8653 ft 319 kts 192°
2026-05-07 20:42 3.28157 -76.33355 7580 ft 315 kts 195°
2026-05-07 20:42 3.26242 -76.34343 6906 ft 306 kts 224°
2026-05-07 20:42 3.25146 -76.36045 6702 ft 282 kts 253°
2026-05-07 20:42 3.24971 -76.37858 6470 ft 247 kts 279°
2026-05-07 20:43 3.25345 -76.39429 6369 ft 219 kts 287°
2026-05-07 20:43 3.25893 -76.40813 6406 ft 211 kts 299°
2026-05-07 20:43 3.26817 -76.41927 6327 ft 206 kts 324°
2026-05-07 20:43 3.28118 -76.42487 6073 ft 207 kts 353°
2026-05-07 20:44 3.29560 -76.42394 5970 ft 209 kts
2026-05-07 20:44 3.30990 -76.42201 5960 ft 199 kts
2026-05-07 20:44 3.32250 -76.42007 5900 ft 170 kts
2026-05-07 20:44 3.33401 -76.41811 5965 ft 166 kts
2026-05-07 20:45 3.34535 -76.41617 5954 ft 165 kts
2026-05-07 20:45 3.35652 -76.41425 5960 ft 164 kts
2026-05-07 20:45 3.36769 -76.41233 5949 ft 162 kts
2026-05-07 20:45 3.37882 -76.41040 5963 ft 162 kts
2026-05-07 20:46 3.38998 -76.40847 5842 ft 162 kts
2026-05-07 20:46 3.40106 -76.40655 5616 ft 161 kts
2026-05-07 20:46 3.41213 -76.40461 5451 ft 161 kts
2026-05-07 20:46 3.42311 -76.40269 5237 ft 160 kts
2026-05-07 20:47 3.43396 -76.40080 5011 ft 159 kts
2026-05-07 20:47 3.44487 -76.39891 4831 ft 159 kts
2026-05-07 20:47 3.45569 -76.39700 4630 ft 156 kts
2026-05-07 20:47 3.46629 -76.39515 4432 ft 154 kts
2026-05-07 20:48 3.47684 -76.39332 4248 ft 154 kts 10°
2026-05-07 20:48 3.48736 -76.39146 4046 ft 153 kts
2026-05-07 20:48 3.49789 -76.38961 3840 ft 152 kts
2026-05-07 20:48 3.50826 -76.38780 3625 ft 151 kts
2026-05-07 20:49 3.51861 -76.38598 3416 ft 151 kts
2026-05-07 20:49 3.52892 -76.38417 3204 ft 151 kts
2026-05-07 20:49 3.53824 -76.38251 3177 ft 112 kts 10°
2026-05-07 20:49 3.54360 -76.38159 3176 ft 46 kts
2026-05-07 20:50 3.54576 -76.38139 3178 ft 9 kts 334°
2026-05-07 20:50 3.54581 -76.38147 3177 ft 0 kts 297°
2026-05-07 20:50 3.54592 -76.38176 3178 ft 8 kts 284°
2026-05-07 20:50 3.54601 -76.38215 3176 ft 8 kts 283°
2026-05-07 20:51 3.54600 -76.38274 3178 ft 5 kts 241°
2026-05-07 20:51 3.54558 -76.38290 3178 ft 11 kts 188°
2026-05-07 20:51 3.54428 -76.38314 3178 ft 27 kts 190°
2026-05-07 20:51 3.54209 -76.38352 3173 ft 36 kts 189°
2026-05-07 20:52 3.54099 -76.38378 3176 ft 15 kts 207°
2026-05-07 20:52 3.53995 -76.38455 3177 ft 19 kts 219°
2026-05-07 20:52 3.53892 -76.38542 3172 ft 12 kts 220°
2026-05-07 20:52 3.53846 -76.38582 3172 ft 2 kts 226°
2026-05-07 20:53 3.53828 -76.38608 3172 ft 6 kts 245°
2026-05-07 20:53 3.53790 -76.38658 3172 ft 4 kts 222°
2026-05-07 20:53 3.53763 -76.38683 3171 ft 2 kts 220°
2026-05-07 20:53 3.53735 -76.38703 3171 ft 1 kts 204°
2026-05-07 20:54 3.53729 -76.38699 3171 ft 1 kts 161°
2026-05-07 20:54 3.53720 -76.38690 3171 ft 4 kts 141°
2026-05-07 20:54 3.53713 -76.38685 3173 ft 2 kts 141°
2026-05-07 20:54 3.53711 -76.38684 3172 ft 0 kts 141°